DW8937 Weather Reports


Display with metric or nautical units.
time (UTC)temp
F
wind
direction
speed
MPH
gust
MPH
rain 1hr
in
rain 24hr
in
rain mn
in
humidity
%
barometer
mb
20191117064704 46 180 6.0 10.0 0.00 0.02 0.01 45 1016.0
20191117064204 46 169 6.0 10.0 0.00 0.02 0.01 46 1016.0
20191117063705 46 185 6.0 10.0 0.00 0.02 0.01 45 1015.9
20191117063205 46 187 6.0 12.0 0.00 0.02 0.01 45 1015.9
20191117062704 46 169 6.0 12.0 0.00 0.02 0.01 46 1015.8
20191117062204 46 167 6.0 12.0 0.00 0.02 0.01 46 1015.7
20191117061704 46 186 5.0 9.0 0.00 0.02 0.01 46 1015.5
20191117061204 46 177 5.0 10.0 0.00 0.02 0.01 46 1015.5
20191117060704 46 180 5.0 10.0 0.00 0.02 0.01 46 1015.5
20191117060204 46 179 5.0 10.0 0.00 0.02 0.01 46 1015.3
20191117055705 45 171 5.0 11.0 0.00 0.02 0.01 47 1015.4
20191117055205 45 181 6.0 11.0 0.00 0.02 0.01 46 1015.3
20191117054704 45 177 6.0 11.0 0.00 0.02 0.01 47 1015.4
20191117054204 45 151 5.0 10.0 0.00 0.02 0.01 47 1015.4
20191117053705 45 131 5.0 10.0 0.00 0.02 0.01 47 1015.4
20191117053204 45 170 5.0 10.0 0.00 0.02 0.01 48 1015.3
20191117052704 45 178 6.0 10.0 0.00 0.02 0.01 47 1015.3
20191117052204 45 161 5.0 9.0 0.00 0.02 0.01 48 1015.3
20191117051705 45 165 5.0 11.0 0.01 0.02 0.01 48 1015.1
20191117051204 45 167 5.0 12.0 0.01 0.02 0.01 48 1015.1
20191117050704 44 168 6.0 12.0 0.01 0.02 0.01 48 1015.0
20191117050204 44 167 7.0 11.0 0.01 0.02 0.01 48 1015.0
20191117045704 44 177 7.0 11.0 0.01 0.02 0.01 49 1015.1
20191117045205 44 169 7.0 14.0 0.01 0.02 0.01 49 1015.1
20191117044705 44 186 7.0 14.0 0.01 0.02 0.01 49 1015.0
20191117044205 44 163 8.0 14.0 0.01 0.02 0.01 49 1015.1
20191117043704 44 172 7.0 12.0 0.01 0.02 0.01 49 1015.0
20191117043204 44 177 6.0 12.0 0.01 0.02 0.01 49 1015.0
20191117042705 44 193 6.0 12.0 0.01 0.02 0.01 49 1015.0
20191117042204 44 178 7.0 14.0 0.01 0.02 0.01 50 1014.9
20191117041704 44 214 7.0 14.0 0.00 0.02 0.00 50 1015.0
20191117041204 44 190 7.0 14.0 0.00 0.02 0.00 50 1015.0
20191117040704 43 140 7.0 14.0 0.00 0.02 0.00 50 1014.9
20191117040204 43 169 7.0 11.0 0.00 0.02 0.00 51 1014.9
20191117035704 43 158 7.0 11.0 0.00 0.02 0.00 51 1014.8
20191117035205 43 175 7.0 15.0 0.00 0.02 0.00 51 1014.8
20191117034705 43 158 7.0 15.0 0.00 0.02 0.00 51 1014.9
20191117034205 43 168 7.0 15.0 0.00 0.02 0.00 51 1014.8
20191117033704 43 162 7.0 14.0 0.00 0.02 0.00 52 1014.6
20191117033204 43 155 6.0 14.0 0.00 0.02 0.00 52 1014.6
20191117032705 43 156 7.0 14.0 0.00 0.02 0.00 52 1014.7
20191117032204 43 157 8.0 14.0 0.00 0.02 0.00 52 1014.7
20191117031705 42 159 7.0 11.0 0.00 0.02 0.00 52 1014.9
20191117031205 42 161 6.0 11.0 0.00 0.02 0.00 53 1014.9
20191117030705 42 157 7.0 13.0 0.00 0.02 0.00 53 1015.0
20191117025704 42 161 8.0 12.0 0.00 0.02 0.00 53 1015.0
20191117025204 42 143 7.0 12.0 0.00 0.02 0.00 54 1014.9
20191117024705 42 143 7.0 12.0 0.00 0.02 0.00 54 1014.9
20191117024204 42 150 8.0 11.0 0.00 0.02 0.00 54 1015.0
20191117023704 42 139 6.0 11.0 0.00 0.02 0.00 55 1014.9
20191117023205 42 148 6.0 11.0 0.00 0.02 0.00 55 1015.1
20191117022704 42 151 6.0 12.0 0.00 0.02 0.00 55 1015.2
20191117022204 41 154 6.0 12.0 0.00 0.02 0.00 55 1015.2
20191117021704 41 158 7.0 12.0 0.00 0.02 0.00 55 1015.1
20191117021204 41 134 7.0 11.0 0.00 0.02 0.00 56 1014.9
20191117020704 41 159 7.0 12.0 0.00 0.02 0.00 56 1014.9
20191117020204 41 136 7.0 15.0 0.00 0.02 0.00 57 1014.9
20191117015704 41 123 8.0 15.0 0.00 0.02 0.00 57 1014.8
20191117015205 41 122 8.0 15.0 0.00 0.02 0.00 57 1014.8
20191117014705 41 115 7.0 13.0 0.00 0.02 0.00 58 1014.8
20191117014204 41 142 7.0 13.0 0.00 0.02 0.00 58 1014.7
20191117013704 41 130 8.0 15.0 0.00 0.02 0.00 58 1014.8
20191117013205 40 115 8.0 15.0 0.00 0.02 0.00 58 1015.0
20191117012705 40 110 8.0 15.0 0.00 0.02 0.00 59 1014.9
20191117012205 40 120 8.0 14.0 0.00 0.02 0.00 59 1015.1
20191117011705 40 127 8.0 15.0 0.00 0.02 0.00 59 1015.3
20191117011204 40 123 8.0 15.0 0.00 0.02 0.00 59 1015.4
20191117010704 40 137 7.0 15.0 0.00 0.02 0.00 59 1015.3
20191117010205 40 128 6.0 11.0 0.00 0.02 0.00 60 1015.3
20191117005705 40 134 7.0 12.0 0.00 0.02 0.00 60 1015.4
20191117005204 40 122 8.0 12.0 0.00 0.02 0.00 60 1015.4
20191117004704 40 129 8.0 12.0 0.00 0.02 0.00 60 1015.4
20191117004204 40 140 7.0 13.0 0.00 0.02 0.00 60 1015.4
20191117003704 40 128 8.0 13.0 0.00 0.02 0.00 61 1015.2
20191117003205 40 118 8.0 12.0 0.00 0.02 0.00 61 1015.1
20191117002704 40 122 8.0 12.0 0.00 0.02 0.00 61 1015.0
20191117002204 40 117 7.0 13.0 0.00 0.02 0.00 61 1015.0
20191117001705 40 109 7.0 13.0 0.00 0.02 0.00 61 1015.1
20191117001204 40 117 7.0 13.0 0.00 0.02 0.00 61 1015.1
20191117000704 40 123 6.0 10.0 0.00 0.02 0.00 62 1015.3
20191117000204 40 111 6.0 9.0 0.00 0.02 0.00 62 1015.3
20191116235704 39 136 6.0 11.0 0.00 0.02 0.00 62 1015.2
20191116235204 39 115 7.0 12.0 0.00 0.02 0.00 62 1015.3
20191116234704 39 96 6.0 12.0 0.00 0.02 0.00 62 1015.3
20191116234205 39 124 7.0 12.0 0.00 0.02 0.00 62 1015.1
20191116233704 39 112 7.0 11.0 0.00 0.02 0.00 62 1015.0
20191116233205 39 106 7.0 13.0 0.00 0.02 0.00 62 1015.2
20191116232704 39 117 7.0 13.0 0.00 0.02 0.00 63 1015.2
20191116232204 39 115 6.0 11.0 0.00 0.02 0.00 63 1015.3
20191116231705 39 112 6.0 11.0 0.00 0.02 0.00 63 1015.5
20191116231205 39 110 6.0 16.0 0.00 0.02 0.00 63 1015.5
20191116230705 39 110 7.0 16.0 0.00 0.02 0.00 64 1015.8
20191116230204 39 113 8.0 16.0 0.00 0.02 0.00 64 1015.7
20191116225705 39 116 8.0 14.0 0.00 0.02 0.00 64 1015.4
20191116225204 39 119 8.0 12.0 0.00 0.02 0.00 64 1015.4
20191116224704 39 111 7.0 12.0 0.00 0.02 0.00 65 1015.5
20191116224204 39 113 7.0 13.0 0.00 0.02 0.00 65 1015.8
20191116223704 39 104 7.0 13.0 0.00 0.02 0.00 65 1015.8
20191116223205 39 107 6.0 13.0 0.00 0.02 0.00 66 1016.1
20191116222704 39 104 7.0 12.0 0.00 0.02 0.00 66 1016.1
20191116222204 39 108 8.0 11.0 0.00 0.02 0.00 67 1016.0
20191116221704 39 72 6.0 11.0 0.00 0.02 0.00 67 1016.2
20191116221204 39 112 6.0 11.0 0.00 0.02 0.00 68 1016.6
20191116220704 39 115 6.0 11.0 0.00 0.02 0.00 68 1016.9
20191116220205 39 123 6.0 10.0 0.00 0.02 0.02 68 1017.0
20191116215704 39 112 7.0 10.0 0.00 0.02 0.02 68 1017.0
20191116215204 39 121 6.0 10.0 0.00 0.02 0.02 68 1017.3
20191116214705 39 126 6.0 10.0 0.00 0.02 0.02 68 1017.5
20191116214204 39 130 5.0 10.0 0.00 0.02 0.02 68 1017.6
20191116213704 39 139 5.0 11.0 0.00 0.02 0.02 69 1017.5
20191116213204 39 134 6.0 11.0 0.00 0.02 0.02 69 1017.6
20191116212704 39 170 6.0 11.0 0.00 0.02 0.02 69 1017.3
20191116212205 39 131 7.0 12.0 0.00 0.02 0.02 69 1017.1
20191116211705 39 128 7.0 13.0 0.00 0.02 0.02 69 1016.7
20191116211204 38 136 7.0 13.0 0.00 0.02 0.02 69 1016.4
20191116210705 38 115 6.0 12.0 0.00 0.02 0.02 69 1016.2
20191116210205 38 126 6.0 11.0 0.00 0.02 0.02 69 1016.2
20191116205706 38 119 7.0 11.0 0.00 0.02 0.02 69 1016.4
20191116205204 38 151 7.0 12.0 0.00 0.02 0.02 69 1016.7
20191116204705 38 146 7.0 12.0 0.00 0.02 0.02 69 1016.6
20191116204204 38 136 7.0 12.0 0.00 0.02 0.02 69 1016.6
20191116203704 38 122 5.0 14.0 0.00 0.02 0.02 69 1016.3
20191116203204 38 130 6.0 14.0 0.00 0.02 0.02 69 1016.2
20191116202705 38 130 7.0 14.0 0.00 0.02 0.02 69 1016.2
20191116202204 38 115 8.0 14.0 0.00 0.02 0.02 69 1016.0
20191116201704 38 118 7.0 13.0 0.00 0.02 0.02 69 1015.8
20191116201204 38 125 7.0 13.0 0.00 0.02 0.02 70 1015.9
20191116200704 38 115 7.0 13.0 0.00 0.02 0.02 70 1016.2
20191116200205 38 141 7.0 13.0 0.00 0.02 0.02 70 1016.4
20191116195704 38 121 6.0 13.0 0.00 0.02 0.02 70 1016.5
20191116195205 38 116 7.0 14.0 0.00 0.02 0.02 70 1016.6
20191116194708 38 113 8.0 14.0 0.00 0.02 0.02 70 1016.2
20191116194204 38 96 7.0 14.0 0.00 0.02 0.02 70 1016.1
20191116193705 38 113 8.0 13.0 0.00 0.02 0.02 70 1016.3
20191116193204 38 119 7.0 13.0 0.00 0.02 0.02 70 1016.3
20191116192704 38 128 7.0 14.0 0.00 0.02 0.02 71 1016.2
20191116192204 38 115 7.0 14.0 0.00 0.02 0.02 71 1016.1
20191116191705 38 105 7.0 15.0 0.00 0.02 0.02 71 1016.1
20191116191205 38 110 8.0 15.0 0.00 0.02 0.02 71 1016.1
20191116190705 38 118 8.0 18.0 0.00 0.02 0.02 71 1016.2
20191116190205 38 90 9.0 18.0 0.00 0.02 0.02 72 1016.4
20191116185705 38 116 10.0 18.0 0.00 0.02 0.02 72 1016.7
20191116185205 38 127 10.0 21.0 0.00 0.02 0.02 72 1016.9
20191116184704 38 107 10.0 21.0 0.00 0.02 0.02 73 1016.9
20191116184204 38 144 11.0 15.0 0.00 0.02 0.02 73 1017.0
20191116183704 38 103 9.0 15.0 0.00 0.02 0.02 73 1016.8
20191116183204 38 119 8.0 14.0 0.00 0.02 0.02 73 1016.7
20191116182705 38 92 8.0 16.0 0.00 0.02 0.02 73 1016.8
20191116182204 38 117 8.0 16.0 0.00 0.02 0.02 73 1016.8
20191116181705 38 108 9.0 16.0 0.00 0.02 0.02 73 1017.0
20191116181204 38 107 10.0 15.0 0.00 0.02 0.02 73 1017.3
20191116180705 38 119 10.0 19.0 0.00 0.02 0.02 73 1017.2
20191116180204 38 119 10.0 19.0 0.00 0.02 0.02 73 1017.1
20191116175705 38 103 10.0 19.0 0.00 0.02 0.02 73 1017.3
20191116175204 38 123 10.0 16.0 0.00 0.02 0.02 73 1017.4
20191116174704 38 112 9.0 16.0 0.00 0.02 0.02 72 1017.3
20191116174204 38 121 8.0 14.0 0.00 0.02 0.02 72 1017.2
20191116173704 38 84 8.0 15.0 0.00 0.02 0.02 71 1017.4
20191116173204 38 120 9.0 16.0 0.00 0.02 0.02 71 1017.5
20191116172704 38 105 9.0 16.0 0.00 0.02 0.02 71 1017.5
20191116172205 38 125 8.0 16.0 0.00 0.02 0.02 70 1017.5
20191116171705 38 113 8.0 17.0 0.00 0.02 0.02 69 1017.6
20191116171204 38 78 9.0 17.0 0.00 0.02 0.02 69 1017.6
20191116170704 38 128 10.0 17.0 0.00 0.02 0.02 69 1017.7
20191116170204 38 131 9.0 15.0 0.00 0.02 0.02 69 1017.6
20191116165704 38 113 8.0 15.0 0.00 0.02 0.02 68 1017.6
20191116165204 38 118 8.0 14.0 0.00 0.02 0.02 68 1017.6
20191116164704 38 80 8.0 14.0 0.00 0.02 0.02 68 1017.7
20191116164204 38 105 8.0 14.0 0.00 0.02 0.02 68 1017.6
20191116163705 38 111 7.0 11.0 0.00 0.02 0.02 68 1017.6
20191116163205 38 97 6.0 11.0 0.00 0.02 0.02 68 1017.7
20191116162704 38 118 6.0 10.0 0.00 0.02 0.02 68 1017.7
20191116162205 38 101 6.0 10.0 0.00 0.02 0.02 68 1017.6
20191116161704 38 94 6.0 10.0 0.00 0.02 0.02 68 1017.6
20191116161204 38 115 6.0 11.0 0.00 0.02 0.02 68 1017.7
20191116160704 38 122 6.0 11.0 0.00 0.02 0.02 68 1017.8
20191116160205 38 87 6.0 11.0 0.00 0.02 0.02 68 1017.8
20191116155704 38 107 5.0 11.0 0.00 0.02 0.02 68 1017.9
20191116155204 38 115 6.0 11.0 0.00 0.02 0.02 69 1017.9
20191116154704 39 117 7.0 13.0 0.00 0.02 0.02 68 1018.1
20191116154204 39 121 7.0 13.0 0.00 0.02 0.02 68 1017.9
20191116153704 39 108 7.0 13.0 0.00 0.02 0.02 68 1017.9
20191116153204 39 96 7.0 14.0 0.00 0.02 0.02 68 1017.8
20191116152704 39 105 7.0 14.0 0.00 0.02 0.02 68 1017.8
20191116152205 39 103 8.0 15.0 0.00 0.02 0.02 68 1018.0
20191116151704 39 117 8.0 15.0 0.00 0.02 0.02 67 1017.8
20191116151204 39 116 7.0 15.0 0.00 0.02 0.02 67 1017.8
20191116150705 39 91 7.0 10.0 0.00 0.02 0.02 67 1017.6
20191116150204 39 103 6.0 11.0 0.00 0.02 0.02 67 1017.8
20191116145704 39 88 6.0 11.0 0.00 0.02 0.02 68 1017.6
20191116145205 39 92 6.0 10.0 0.00 0.02 0.02 68 1017.7
20191116144704 39 90 6.0 11.0 0.00 0.02 0.02 68 1017.9
20191116144205 39 78 6.0 11.0 0.00 0.02 0.02 67 1017.9
20191116143704 39 128 6.0 11.0 0.00 0.02 0.02 68 1018.2
20191116143205 39 98 4.0 8.0 0.00 0.02 0.02 68 1018.3
20191116142705 39 101 3.0 8.0 0.00 0.02 0.02 67 1018.3
20191116142204 39 110 3.0 7.0 0.00 0.02 0.02 67 1018.4
20191116141704 39 109 3.0 8.0 0.00 0.02 0.02 68 1018.4
20191116141204 39 109 4.0 9.0 0.00 0.02 0.02 68 1018.2
20191116140704 39 109 5.0 9.0 0.00 0.02 0.02 68 1018.2
20191116140204 39 94 5.0 9.0 0.00 0.02 0.02 68 1018.1
20191116135704 39 85 4.0 8.0 0.00 0.02 0.02 68 1018.1
20191116135205 39 82 3.0 8.0 0.00 0.02 0.02 68 1018.1
20191116134704 40 82 3.0 8.0 0.00 0.02 0.02 68 1018.2
20191116134205 40 97 4.0 8.0 0.00 0.02 0.02 68 1018.2
20191116133704 40 112 4.0 8.0 0.00 0.02 0.02 68 1018.3
20191116133204 40 98 4.0 8.0 0.00 0.02 0.02 67 1018.4
20191116132705 40 105 4.0 8.0 0.00 0.02 0.02 67 1018.4
20191116132205 40 90 4.0 8.0 0.00 0.02 0.02 67 1018.2
20191116131704 40 109 4.0 9.0 0.00 0.02 0.02 67 1018.5
20191116131204 40 108 5.0 9.0 0.00 0.02 0.02 67 1018.6
20191116130705 40 108 5.0 10.0 0.00 0.02 0.02 67 1018.5
20191116130205 40 140 4.0 10.0 0.00 0.02 0.02 67 1018.5
20191116125705 40 97 4.0 7.0 0.00 0.02 0.02 67 1018.4
20191116125204 40 118 3.0 7.0 0.00 0.02 0.02 67 1018.6
20191116124704 40 118 3.0 7.0 0.00 0.02 0.02 67 1018.7
20191116124205 40 118 3.0 5.0 0.00 0.02 0.02 67 1018.6
20191116123704 40 118 3.0 8.0 0.00 0.02 0.02 67 1018.7
20191116123205 40 118 4.0 8.0 0.00 0.02 0.02 67 1018.6
20191116122705 40 118 5.0 9.0 0.00 0.02 0.02 66 1018.7
20191116122205 40 118 5.0 9.0 0.00 0.02 0.02 66 1018.7
20191116121704 40 115 5.0 9.0 0.00 0.02 0.02 66 1018.5
20191116121204 40 111 4.0 9.0 0.00 0.02 0.02 66 1018.6
20191116120704 40 107 5.0 9.0 0.00 0.02 0.02 66 1018.6
20191116120204 40 107 4.0 9.0 0.00 0.02 0.02 66 1018.6
20191116115704 40 107 4.0 8.0 0.00 0.02 0.02 65 1018.6
20191116115204 40 105 3.0 8.0 0.00 0.02 0.02 65 1018.6
20191116114704 40 96 4.0 8.0 0.00 0.02 0.02 65 1018.5
20191116114204 40 94 4.0 8.0 0.00 0.02 0.02 65 1018.5
20191116113705 40 92 4.0 8.0 0.00 0.02 0.02 65 1018.5
20191116113205 40 115 4.0 9.0 0.00 0.02 0.02 65 1018.4
20191116112704 40 115 5.0 10.0 0.00 0.02 0.02 65 1018.5
20191116112204 40 120 5.0 10.0 0.00 0.02 0.02 65 1018.6
20191116111705 40 114 5.0 10.0 0.00 0.02 0.02 65 1018.7
20191116111205 40 113 5.0 9.0 0.00 0.02 0.02 65 1018.7
20191116110705 40 111 6.0 9.0 0.00 0.02 0.02 65 1018.6
20191116110204 40 112 6.0 10.0 0.00 0.02 0.02 65 1018.7
20191116105704 40 113 5.0 10.0 0.00 0.02 0.02 65 1018.6
20191116105205 40 111 5.0 10.0 0.00 0.02 0.02 65 1018.7
20191116104705 40 100 6.0 10.0 0.00 0.02 0.02 65 1018.7
20191116104205 40 109 6.0 11.0 0.00 0.02 0.02 65 1018.7
20191116103704 40 112 6.0 11.0 0.00 0.02 0.02 64 1018.7
20191116103204 40 108 6.0 11.0 0.00 0.02 0.02 64 1018.7
20191116102705 40 97 6.0 11.0 0.00 0.02 0.02 64 1018.7
20191116102204 40 111 6.0 11.0 0.00 0.02 0.02 64 1018.8
20191116101705 40 92 6.0 9.0 0.00 0.02 0.02 64 1018.9
20191116101204 40 97 6.0 10.0 0.00 0.02 0.02 64 1019.1
20191116100704 40 90 5.0 12.0 0.00 0.02 0.02 64 1019.0
20191116100205 40 103 6.0 13.0 0.00 0.02 0.02 64 1019.0
20191116095704 40 90 7.0 13.0 0.00 0.02 0.02 64 1019.0
20191116095204 40 134 7.0 13.0 0.00 0.02 0.02 64 1018.9
20191116094704 40 71 7.0 11.0 0.00 0.02 0.02 64 1018.9
20191116094205 40 109 6.0 11.0 0.00 0.02 0.02 63 1018.9
20191116093704 40 91 6.0 11.0 0.00 0.02 0.02 63 1019.1
20191116093204 40 113 5.0 10.0 0.00 0.02 0.02 63 1019.1
20191116092705 40 123 6.0 10.0 0.00 0.02 0.02 63 1018.9
20191116092205 40 104 6.0 10.0 0.00 0.02 0.02 64 1019.0
20191116091204 40 84 5.0 10.0 0.00 0.02 0.02 64 1019.2
20191116090704 40 87 6.0 11.0 0.00 0.02 0.02 63 1019.2
20191116090204 40 107 7.0 11.0 0.00 0.02 0.02 63 1019.2
20191116085705 40 93 7.0 11.0 0.00 0.02 0.02 63 1019.2
20191116085205 40 92 6.0 10.0 0.00 0.02 0.02 64 1019.4
20191116084705 40 90 5.0 11.0 0.00 0.02 0.02 64 1019.5
20191116084205 40 101 5.0 11.0 0.00 0.02 0.02 64 1019.5
20191116083704 40 91 6.0 11.0 0.00 0.02 0.02 64 1019.4
20191116083205 40 98 6.0 10.0 0.00 0.02 0.02 64 1019.6
20191116082704 40 90 6.0 11.0 0.00 0.02 0.02 64 1019.6
20191116082205 40 98 6.0 13.0 0.00 0.02 0.02 64 1019.6
20191116081705 40 90 6.0 13.0 0.00 0.02 0.02 64 1019.6
20191116081205 40 92 6.0 13.0 0.00 0.02 0.02 64 1019.5
20191116080704 40 92 5.0 11.0 0.00 0.02 0.02 64 1019.6
20191116080204 40 92 5.0 10.0 0.00 0.02 0.02 64 1019.5
20191116075704 40 93 5.0 12.0 0.00 0.02 0.02 64 1019.5
20191116075205 40 93 6.0 12.0 0.00 0.02 0.02 64 1019.5
20191116074704 40 88 6.0 11.0 0.01 0.02 0.02 64 1019.5
20191116074204 40 89 5.0 11.0 0.01 0.02 0.02 64 1019.6
20191116073704 40 92 5.0 13.0 0.01 0.02 0.02 64 1019.6
20191116073205 40 96 6.0 13.0 0.01 0.02 0.02 65 1019.6
20191116072704 40 101 6.0 13.0 0.01 0.02 0.02 64 1019.6
20191116072205 40 86 5.0 11.0 0.01 0.02 0.02 65 1019.7
20191116071704 40 86 5.0 11.0 0.01 0.02 0.02 65 1019.7
20191116071204 40 113 6.0 11.0 0.01 0.02 0.02 65 1019.7
20191116070704 40 80 6.0 11.0 0.01 0.02 0.02 65 1019.8
20191116070205 40 103 5.0 13.0 0.01 0.02 0.02 65 1019.8
20191116065704 40 82 6.0 14.0 0.01 0.02 0.02 65 1019.7
20191116065204 40 90 7.0 14.0 0.00 0.01 0.01 65 1019.7